Location: Brivio
(45.7333°N, 9.4500°E)
Time: 00:23:27
(UTC+00:00)

SL-4 R/B - Pass Details

Date: 18 October 2019
Orbit: 429 x 667 km, 51.6° (Epoch: 15 November)

Event Time Altitude Azimuth Distance (km) Brightness Sun altitude
Rises 16:57:37 0° 296° (WNW) 2,694 6.6 -5.2°
Reaches altitude 10° 17:00:00 10° 289° (WNW) 1,755 5.8 -5.6°
Maximum altitude 17:03:44 41° 219° (SW) 726 3.1 -6.3°
Drops below altitude 10° 17:07:11 10° 148° (SSE) 1,623 4.2 -6.9°
Sets 17:09:19 0° 141° (SE) 2,463 5.0 -7.3°
